210  
ASUS43 KMKX 160520  
RWRWI  
 
WISCONSIN REGIONAL WEATHER ROUNDUP  
NATIONAL WEATHER SERVICE MILWAUKEE/SULLIVAN WI  
1200 AM CDT SUN JUN 16 2024  
 
NOTE: "FAIR" INDICATES FEW OR NO CLOUDS BELOW 12,000 FEET WITH NO  
SIGNIFICANT WEATHER AND/OR S TO VISIBILITY
.  
 
WIZ001-002-006>008-014>016-023>028-160600-  
NORTHWEST WISCONSIN  
 
CITY SKY/WX TMP DP RH WIND PRES REMARKS
 
SUPERIOR ARPT DRIZZLE 54 53 98 NE8 29.83F TC 12  
ASHLAND LGT RAIN 60 59 96 E5 29.84F TC 16  
HAYWARD CLOUDY 61 56 83 S14G23 29.84F TC 16  
SIREN LGT RAIN 61 58 89 SE9 29.80F TC 16  
CUMBERLAND CLOUDY 63 59 88 SE12G18 29.83S TC 17  
RICE LAKE RAIN 62 58 86 SE16 29.84F TC 17  
CHETEK CLOUDY 65 62 89 SE13G21 29.85S TC 18  
LADYSMITH CLOUDY 62 60 92 SE8G17 29.88F TC 17  
EAU CLAIRE RAIN 65 61 87 SE14G22 29.84F TC 18  
MENOMONIE CLOUDY 64 64 100 SE13 29.83F TC 18  
NEW RICHMOND LGT RAIN 62 60 91 SE12G20 29.80S TC 17  
OSCEOLA CLOUDY 64 62 94 SE13G22 29.81S TC 18  

 
 
WIZ003>005-009-010-017-018-160600-  
NORTH CENTRAL WISCONSIN  
 
CITY SKY/WX TMP DP RH WIND PRES REMARKS
 
MANITOWISH WTR CLOUDY 59 59 100 SE7 29.90F TC 15  
ARBOR VITAE DRIZZLE 60 58 94 SE10G17 29.92F TC 15  
WOODRUFF DRIZZLE 60 58 94 SE10G17 29.92F TC 15  
RHINELANDER LGT RAIN 60 56 86 SE10 29.95F TC 16  
EAGLE RIVER LGT RAIN 59 59 100 SE7 29.96F TC 15  
LAND O LAKES LGT RAIN 59 58 97 S6 29.97F TC 15  
PHILLIPS CLOUDY 59 59 100 SE8 29.89F TC 15  
TOMAHAWK CLOUDY 60 58 91 SE5 29.94F TC 16  
MEDFORD CLOUDY 61 57 88 SE8 29.94S TC 16  
MERRILL LGT RAIN 60 60 100 SE8 29.93F TC 16  

 
 
WIZ029-030-035-036-043>047-160600-  
CENTRAL WISCONSIN  
 
CITY SKY/WX TMP DP RH WIND PRES REMARKS
 
WAUSAU LGT RAIN 62 59 90 E6 29.95F TC 17  
MOSINEE LGT RAIN 63 59 88 CALM 29.96F TC 17  
MARSHFIELD RAIN 63 60 90 SE12 29.94F FOG TC 17  
STEVENS POINT NOT AVBL  
WAUPACA CLOUDY 69 58 67 CALM 29.95S TC 21  
WAUTOMA MOCLDY 67 58 72 E6 29.93F TC 19  
WISC RAPIDS LGT RAIN 66 60 81 NE3 29.96R TC 19  
CAMP DOUGLAS DRIZZLE 68 61 77 NE6 29.89R TC 20  

 
 
WIZ011>013-019>022-031-037>040-048>050-160600-  
NORTHEAST WISCONSIN  
 
CITY SKY/WX TMP DP RH WIND PRES REMARKS
 
ANTIGO CLOUDY 59 58 94 SE8 29.99F TC 15  
SHAWANO CLOUDY 66 62 85 E6 29.95F TC 19  
OCONTO CLOUDY 62 60 93 E3 29.97F TC 17  
STURGEON BAY CLOUDY 64 56 75 SE10 29.99F TC 18  
GREEN BAY CLOUDY 71 56 58 SE12 29.95F TC 22  
MANITOWOC MOCLDY 66 57 72 SE9 30.00F TC 19  
APPLETON MOCLDY 70 57 64 SE12 29.96F TC 21  
CLINTONVILLE CLOUDY 67 57 70 CALM 29.97S TC 19  
OSHKOSH MOCLDY 71 55 56 SE10 29.94F TC 22  

 
 
WIZ032>034-041-042-053>061-160600-  
SOUTHWEST WISCONSIN  
 
CITY SKY/WX TMP DP RH WIND PRES REMARKS
 
LA CROSSE LGT RAIN 66 61 84 E9G18 29.84F TC 19  
SPARTA LGT RAIN 64 64 100 E8 29.85F TC 18  
VIROQUA CLOUDY 70 55 57 CALM 29.89R TC 21  
BOSCOBEL CLOUDY 77 57 50 S7 29.87S TC 25  
PRAIRIE DU CHI MOCLDY 75 56 50 SE8 29.84S TC 24  
PLATTEVILLE MOCLDY 70 56 61 SE8 29.90F TC 21  

 
 
WIZ056-057-062-063-064-067-068-160600-  
SOUTH CENTRAL WISCONSIN  
 
CITY SKY/WX TMP DP RH WIND PRES REMARKS
 
REEDSBURG MOCLDY 70 56 60 CALM 29.89F TC 21  
BARABOO/DELLS MOCLDY 67 61 81 CALM 29.90F TC 19  
LONE ROCK CLOUDY 73 58 59 E7 29.88F TC 23  
MINERAL POINT MOCLDY 72 55 56 S7 29.93F TC 22  
MADISON PTCLDY 73 57 57 S10 29.92S TC 23  
MIDDLETON PTCLDY 73 63 69 SE8 29.92F TC 23  
WATERTOWN PTCLDY 69 55 61 SE7 29.95S TC 21  
MONROE PTCLDY 73 56 55 S13 29.93F TC 23  
JANESVILLE CLEAR 73 52 46 S13 29.95S TC 23  

 
 
WIZ051-052-058>065-066-070>072-160600-  
SOUTHEAST WISCONSIN  
 
CITY SKY/WX TMP DP RH WIND PRES REMARKS
 
MILWAUKEE MOCLDY 74 54 49 S14G22 29.97S TC 23  
WAUKESHA CLOUDY 70 52 52 SE9 29.99S TC 21  
MILWAUKEE/TIMM PTCLDY 72 52 49 S10 30.00S TC 22  
RACINE PTCLDY 72 56 57 S13G22 30.01R TC 22  
KENOSHA PTCLDY 75 55 49 SE10 29.99R TC 24  
FOND DU LAC MOCLDY 70 55 59 SE13 29.95F TC 21  
SHEBOYGAN MOCLDY 66 56 70 S8 29.99S TC 19  
WEST BEND NOT AVBL  
JUNEAU CLOUDY 70 55 60 SE10 29.96S TC 21  

 
 
LSZ147-162-160600-  
LAKE SUPERIOR  
 
STATION/POSITION TIME TEMP WIND PRES WAVE
 
AIR SEA DIR/SP/G HT/PER  
(UTC) (F) (DEG/KT/KT) (MB) (FT/S)  
W MID LAKE BUOY 0500 45 40 120/ 4/ 6 1013.8  
DEVILS ISLAND 0500 56 80/ 6/ 7 1011.6F  
PORT WING 0440 61 150/ 1/ 4 1010.2F  
SAXON HARBOR 0430 59 CALM / 1 1011.5F  

 
 
LMZ867-665-643>646-160600-  
LAKE MICHIGAN  
 
STATION/POSITION TIME TEMP WIND PRES WAVE
 
AIR SEA DIR/SP/G HT/PER  
(UTC) (F) (DEG/KT/KT) (MB) (FT/S)  
CHAMBERS ISLAND 0440 61 70/ 2/ 4 N/A  
N MID LAKE BUOY 0500 57 130/ 6/ 6 N/A  
NORTHPORT PIER 0400 61 120/ 3/ 4 1016.9  
KEWAUNEE LAKESHO 0448 64 180/ 7/ 9 1014.2F  
SHEBOYGAN LAKESH 0500 65 160/ 14/ 17 1015.1S  
PORT WASHINGTON 0430 64 CALM / 3 1016.6F  
ATWATER BUOY 0500 64 61 170/ 12/ 14 1015.3 2/ 4  
MILWAUKEE LAKESH 0500 74 170/ 12/ 16 N/A  
S MID LAKE BUOY 0500 65 60 130/ 12/ 14 1016.5  
KENOSHA LAKESH 0500 67 160/ 9/ 10 1015.6  

 
 
TC - TEMPERATURE IN CELSIUS  
VSB - VISIBILITY IN STATUTE MILES  
WCI - WIND CHILL INDEX  
HX - HEAT INDEX  
 
 
 
CLICK HERE TO GO TO PREVIOUS BULLETINS.

The Nexlab WI Page Main Text Page